Regional Weather Roundup
Issued by NWS

Home | Current Version | Previous Version | Graphics & Text | Print | Product List | Glossary On
Versions: 1 2 3 4 5 6 7 8 9 10 11 12 13 14 15 16 17 18 19 20 21 22 23 24 25 26 27
000
ASUS45 KCYS 310810
RWRWY

WYOMING REGIONAL WEATHER ROUNDUP
NATIONAL WEATHER SERVICE CHEYENNE WY
200 AM MDT FRI OCT 31 2014

NOTE:  "FAIR" INDICATES FEW OR NO CLOUDS BELOW 12,000 FEET
WITH NO SIGNIFICANT WEATHER AND/OR OBSTRUCTIONS TO VISIBILITY.

WYZ001-310900-
YELLOWSTONE NATIONAL PARK

CITY           SKY/WX    TMP DP  RH WIND       PRES   REMARKS
LK YELLOWSTONE   N/A     28  26  92 CALM      30.26
W YELLOWSTONE  NOT AVBL

$$
WYZ002>013-054>058-071-098>099-310900-
NORTHERN WYOMING

CITY           SKY/WX    TMP DP  RH WIND       PRES   REMARKS
JACKSON        MOCLDY    30  28  93 NE6       30.22F WCI  24
CODY           MOCLDY    39  28  65 SE9       30.16  WCI  33
GREYBULL       MOCLDY    38  23  55 CALM      30.16F
WORLAND        PTCLDY    33  21  61 S6        30.16F WCI  28
SHERIDAN       CLEAR     43  27  53 SE8       30.17F
BUFFALO        PTCLDY    43  25  49 SE16      30.22F
GILLETTE       CLEAR     36  30  79 S20G31    30.29F WCI  25
HULETT         FOG       28  28 100 CALM      30.35  VSB<1/4
NEWCASTLE      CLOUDY    32  32 100 SE8       30.41  WCI  25

$$
WYZ014>020-022>026-101>103-310900-
CENTRAL WYOMING

CITY           SKY/WX    TMP DP  RH WIND       PRES   REMARKS
BIG PINEY      MOCLDY    29  21  72 E3        30.27F
PINEDALE       PTSUNNY   27  23  86 W5        30.27  WCI  21
DUBOIS         FAIR      32  27  80 W10       30.27F WCI  24
LANDER         CLOUDY    40  27  59 CALM      30.22F
RIVERTON       CLOUDY    37  24  59 W6        30.22F WCI  32
CASPER         PTCLDY    28  21  75 N5        30.27F WCI  23
DOUGLAS        PTCLDY    37  30  75 SE18      30.34F WCI  27

$$
WYZ021-027>030-104>119-310900-
SOUTHERN WYOMING

CITY           SKY/WX    TMP DP  RH WIND       PRES   REMARKS
EVANSTON       MOCLDY    46  21  37 S5        30.22F
KEMMERER       PTSUNNY   41  27  56 N13       30.24F
FORT BRIDGER   FAIR      39  27  62 W7        30.26F WCI  34
ROCK SPRINGS   PTCLDY    43  25  49 SE9       30.24S
DIXON          FAIR      42  26  54 E7        30.29
RAWLINS        MOCLDY    28  17  63 NW3       30.30F
SARATOGA       FAIR      41  23  48 SE17      30.30F
LARAMIE        PTCLDY    37  24  59 SE22      30.34F WCI  26
CHEYENNE       CLEAR     35  27  72 S13       30.40F WCI  26
TORRINGTON     CLEAR     30  27  88 E9        30.41S WCI  22
PINE BLUFFS    FAIR      34  30  86 S5        30.42F WCI  30

$$



USA.gov is the U.S. government's official web portal to all federal, state and local government web resources and services.